CW3224 Weather Reports


Display with metric or nautical units.
time (UTC)temp
F
wind
direction
speed
MPH
gust
MPH
rain 1hr
in
rain 24hr
in
rain mn
in
humidity
%
barometer
mb
20190616065128 65 176 0.0 1.0 0.00 0.00 0.00 77 1011.0
20190616064129 65 176 0.0 1.0 0.00 0.00 0.00 76 1011.0
20190616063125 66 176 1.0 4.0 0.00 0.00 0.00 74 1010.8
20190616062123 67 181 1.0 6.0 0.00 0.00 0.00 70 1010.8
20190616061125 67 202 2.0 6.0 0.00 0.00 0.00 70 1010.7
20190616060119 67 214 1.0 4.0 0.00 0.00 0.00 70 1010.7
20190616055119 67 202 2.0 7.0 0.00 0.00 0.00 70 1010.7
20190616054119 67 190 2.0 5.0 0.00 0.00 0.00 69 1010.9
20190616053111 68 150 3.0 9.0 0.00 0.00 0.00 67 1010.6
20190616052112 68 181 3.0 7.0 0.00 0.00 0.00 67 1010.6
20190616051101 68 201 2.0 7.0 0.00 0.00 0.00 67 1010.7
20190616050101 67 234 2.0 6.0 0.00 0.00 0.00 67 1010.6
20190616045102 68 207 1.0 5.0 0.00 0.00 0.00 66 1010.6
20190616044100 68 187 2.0 9.0 0.00 0.00 0.00 66 1010.7
20190616043100 68 164 2.0 6.0 0.00 0.00 0.00 66 1010.9
20190616042059 68 210 3.0 8.0 0.00 0.00 0.00 64 1010.9
20190616041059 69 198 2.0 7.0 0.00 0.00 0.00 63 1011.0
20190616040100 69 238 1.0 4.0 0.00 0.00 0.00 63 1011.4
20190616035059 69 237 1.0 3.0 0.00 0.00 0.00 62 1011.4
20190616034100 70 195 2.0 7.0 0.00 0.00 0.00 60 1011.3
20190616033059 70 195 2.0 7.0 0.00 0.00 0.00 60 1011.5
20190616032054 70 202 2.0 7.0 0.00 0.00 0.00 58 1011.5
20190616031054 71 210 2.0 9.0 0.00 0.00 0.00 58 1011.6
20190616030055 71 214 3.0 9.0 0.00 0.00 0.00 57 1011.6
20190616025055 71 218 3.0 11.0 0.00 0.00 0.00 57 1011.6
20190616024054 71 201 3.0 11.0 0.00 0.00 0.00 57 1011.5
20190616023055 71 158 3.0 9.0 0.00 0.00 0.00 57 1011.9
20190616022055 71 235 3.0 8.0 0.00 0.00 0.00 59 1011.9
20190616021051 71 156 3.0 10.0 0.00 0.00 0.00 60 1011.8
20190616020045 71 144 3.0 10.0 0.00 0.00 0.00 61 1011.6
20190616015044 71 205 4.0 13.0 0.00 0.00 0.00 61 1011.6
20190616014044 70 195 4.0 11.0 0.00 0.00 0.00 61 1011.6
20190616013044 70 156 4.0 11.0 0.00 0.00 0.00 62 1011.6
20190616012042 70 247 3.0 10.0 0.00 0.00 0.00 63 1011.6
20190616011042 71 198 3.0 9.0 0.00 0.00 0.00 62 1011.7
20190616010044 71 170 3.0 9.0 0.00 0.00 0.00 62 1011.5
20190616005042 71 226 2.0 7.0 0.00 0.00 0.00 61 1011.5
20190616004041 72 160 3.0 8.0 0.00 0.00 0.00 60 1011.5
20190616003040 72 206 3.0 10.0 0.00 0.00 0.00 58 1011.5
20190616002041 73 189 5.0 13.0 0.00 0.00 0.00 57 1011.5
20190616001038 73 205 4.0 12.0 0.00 0.00 0.00 56 1011.5
20190616000039 73 199 4.0 10.0 0.00 0.00 0.00 56 1011.5
20190615235038 73 142 3.0 9.0 0.00 0.00 0.00 55 1011.5
20190615234036 74 217 5.0 15.0 0.00 0.00 0.00 55 1011.5
20190615233036 74 208 5.0 11.0 0.00 0.00 0.00 54 1011.5
20190615232036 74 142 4.0 9.0 0.00 0.00 0.00 54 1011.5
20190615231037 75 225 4.0 10.0 0.00 0.00 0.00 52 1011.5
20190615230036 75 222 4.0 11.0 0.00 0.00 0.00 50 1011.5
20190615225036 75 213 4.0 11.0 0.00 0.00 0.00 50 1011.5
20190615224035 75 199 4.0 11.0 0.00 0.00 0.00 50 1011.6
20190615223037 75 168 5.0 17.0 0.00 0.00 0.00 48 1011.5
20190615222033 75 202 4.0 11.0 0.00 0.00 0.00 46 1011.5
20190615221026 75 236 4.0 13.0 0.00 0.00 0.00 46 1011.6
20190615220026 76 189 5.0 16.0 0.00 0.00 0.00 46 1011.5
20190615215027 76 219 5.0 15.0 0.00 0.00 0.00 46 1011.5
20190615155959 76 171 3.0 9.0 0.00 0.00 0.00 45 1016.3
20190615155000 74 206 3.0 12.0 0.00 0.00 0.00 51 1016.3
20190615154000 75 210 3.0 11.0 0.00 0.00 0.00 50 1016.4
20190615153001 73 158 4.0 11.0 0.00 0.00 0.00 52 1016.7
20190615151959 73 190 2.0 7.0 0.00 0.00 0.00 58 1016.7
20190615150959 73 181 2.0 8.0 0.00 0.00 0.00 56 1016.8
20190615150001 73 262 4.0 9.0 0.00 0.00 0.00 56 1016.9
20190615144955 71 162 1.0 7.0 0.00 0.00 0.00 58 1016.9
20190615143956 70 209 2.0 5.0 0.00 0.00 0.00 70 1017.3
20190615142955 69 200 3.0 7.0 0.00 0.00 0.00 65 1017.5
20190615141955 69 166 3.0 9.0 0.00 0.00 0.00 61 1017.5
20190615140955 69 210 3.0 8.0 0.00 0.00 0.00 58 1017.9
20190615135953 68 201 3.0 8.0 0.00 0.00 0.00 59 1017.9
20190615134953 67 201 3.0 7.0 0.00 0.00 0.00 65 1017.9
20190615133953 68 200 3.0 10.0 0.00 0.00 0.00 62 1018.1
20190615132955 67 162 3.0 7.0 0.00 0.00 0.00 67 1018.1
20190615131952 67 206 2.0 7.0 0.00 0.00 0.00 61 1018.1
20190615130953 66 196 2.0 6.0 0.00 0.00 0.00 66 1018.4
20190615125950 65 108 1.0 6.0 0.00 0.00 0.00 68 1018.4
20190615124940 64 188 1.0 5.0 0.00 0.00 0.00 69 1018.5
20190615123933 64 173 2.0 7.0 0.00 0.00 0.00 72 1018.5
20190615122932 63 196 1.0 4.0 0.00 0.00 0.00 72 1018.5
20190615121932 61 195 1.0 6.0 0.00 0.00 0.00 78 1018.4
20190615120931 61 191 0.0 4.0 0.00 0.00 0.00 78 1018.4
20190615115932 61 190 1.0 5.0 0.00 0.00 0.00 77 1018.4
20190615114932 60 210 1.0 5.0 0.00 0.00 0.00 80 1018.4
20190615113923 59 218 1.0 3.0 0.00 0.00 0.00 83 1018.4
20190615112920 57 191 0.0 4.0 0.00 0.00 0.00 87 1018.3
20190615111911 57 191 0.0 0.0 0.00 0.00 0.00 84 1018.3
20190615110909 57 191 0.0 2.0 0.00 0.00 0.00 83 1018.3
20190615105910 58 206 1.0 5.0 0.00 0.00 0.00 82 1018.1
20190615104909 57 182 1.0 5.0 0.00 0.00 0.00 83 1018.1
20190615103909 56 265 0.0 2.0 0.00 0.00 0.00 84 1018.1
20190615102910 55 191 0.0 4.0 0.00 0.00 0.00 85 1017.9
20190615101908 54 160 0.0 2.0 0.00 0.00 0.00 87 1017.8
20190615100907 53 92 0.0 2.0 0.00 0.00 0.00 89 1017.8
20190615095907 53 0 1.0 6.0 0.00 0.00 0.00 88 1017.6
20190615094907 54 166 0.0 7.0 0.00 0.00 0.00 86 1017.5
20190615093906 54 96 0.0 2.0 0.00 0.00 0.00 87 1017.5
20190615092908 53 190 0.0 1.0 0.00 0.00 0.00 88 1017.3
20190615091908 53 229 0.0 4.0 0.00 0.00 0.00 88 1016.9
20190615090908 53 185 0.0 0.0 0.00 0.00 0.00 86 1016.9
20190615085905 53 183 0.0 0.0 0.00 0.00 0.00 86 1016.8
20190615084906 52 157 0.0 0.0 0.00 0.00 0.00 88 1016.5
20190615083905 52 243 0.0 0.0 0.00 0.00 0.00 89 1016.5
20190615082903 51 176 0.0 0.0 0.00 0.00 0.00 91 1016.4
20190615081904 50 176 0.0 0.0 0.00 0.00 0.00 91 1016.3
20190615080859 51 176 0.0 0.0 0.00 0.00 0.00 91 1016.3
20190615075854 51 176 0.0 0.0 0.00 0.00 0.00 90 1016.1
20190615074854 51 176 0.0 0.0 0.00 0.00 0.00 90 1016.1
20190615073854 51 176 0.0 0.0 0.00 0.00 0.00 88 1016.1
20190615072852 51 176 0.0 0.0 0.00 0.00 0.00 89 1015.9
20190615071853 51 176 0.0 0.0 0.00 0.00 0.00 89 1015.8
20190615070854 52 176 0.0 0.0 0.00 0.00 0.00 89 1015.8